[[{"header":{"parameterUnit":"m.s-1","parameterCategory":2,"la1":30.2991,"la2":30.254,"lo1":-89.0895,"lo2":-89.0444,"dx":0.0017,"dy":0.0017,"nx":28,"ny":28,"refTime":"2022-11-07T03:00:00:Z","depth":"0","parameterNumber":2,"parameterNumberName":"U-component_of_CURRENTS"},"data":[0,0,0,0,0,0,0,0,0,0,0,0,0,0,0,0,0,0,0,0,0,0,0,0,0,0,0,0,0,0,0,0,0,0,0,0,0,0,0,0,0,0,0,0,0,0,0,0,0,0,0,0,0,0,0,0,0,0,-0.1586,-0.1586,0,-0.1601,-0.1601,-0.1601,-0.1596,-0.1596,-0.1596,-0.1596,-0.1546,-0.1544,-0.1543,0,0,0,0,0,0,0,0,0,0,0,0,0,-0.159,-0.1589,-0.1586,-0.1586,-0.1587,-0.1601,-0.1601,-0.1601,-0.1596,-0.1596,-0.1596,-0.1596,-0.1546,-0.1544,-0.1542,0,0,0,0,0,0,0,0,0,0,0,0,0,-0.159,-0.1589,-0.1586,-0.159,-0.1591,-0.1601,-0.1601,-0.16,-0.1596,-0.1596,-0.1596,-0.1596,-0.1547,-0.1544,-0.1542,-0.1524,0,0,-0.1535,-0.1534,0,0,0,0,0,0,0,0,-0.159,-0.1589,-0.1589,-0.159,-0.1591,-0.1601,-0.1584,-0.1573,-0.1596,-0.1588,-0.1596,-0.1597,-0.1561,-0.1558,-0.1554,-0.1521,-0.1519,-0.1535,-0.1534,-0.1533,-0.1532,0,0,0,0,0,0,0,-0.159,-0.1589,-0.1586,-0.159,-0.1591,-0.1605,-0.1604,-0.1582,-0.1568,-0.1589,-0.159,-0.16,-0.1561,-0.1556,-0.1552,-0.1518,-0.1535,-0.1533,-0.1532,-0.1531,-0.1456,-0.1455,0,0,0,0,0,0,-0.1596,-0.1588,-0.1586,-0.1587,-0.1597,-0.1605,-0.1604,-0.1594,-0.157,-0.1568,-0.16,-0.16,-0.156,-0.1555,-0.1551,-0.1554,-0.1533,-0.1531,-0.1529,-0.1457,-0.1456,-0.1455,0,0,0,0,0,0,-0.1596,-0.1595,-0.1586,-0.1594,-0.1594,-0.1605,-0.1593,-0.1594,-0.1596,-0.158,-0.1576,-0.1603,-0.156,-0.1554,-0.1528,-0.155,-0.153,-0.1528,-0.1457,-0.1456,-0.1455,-0.1542,0,0,0,0,0,0,-0.1595,-0.1594,-0.1593,-0.1594,-0.1594,-0.1604,-0.1594,-0.1594,-0.1604,-0.1604,-0.1581,-0.1576,-0.1559,-0.1531,-0.1526,-0.1547,-0.1526,-0.1458,-0.1457,-0.1456,-0.154,-0.1544,-0.1548,0,0,0,0,0,-0.1595,-0.1617,-0.1592,-0.1593,-0.159,-0.1605,-0.1606,-0.1611,-0.1604,-0.1611,-0.1583,-0.1577,-0.152,-0.1529,-0.1523,-0.1544,-0.1459,-0.1457,-0.1456,-0.1538,-0.1544,-0.1548,0,0,0,0,0,0,-0.165,-0.1619,-0.1592,-0.1609,-0.1603,-0.1606,-0.1627,-0.1615,-0.1599,-0.1599,-0.1569,-0.1562,-0.1551,-0.1521,-0.1532,-0.1513,-0.1488,-0.1485,-0.1553,-0.1557,-0.1561,-0.1583,-0.1524,0,0,0,0,0,-0.165,-0.1637,-0.162,-0.1633,-0.1631,-0.1619,-0.1627,-0.1625,-0.1614,-0.1609,-0.1588,-0.1559,-0.1538,-0.1528,-0.1504,-0.1491,-0.1485,-0.1496,-0.15,-0.1504,-0.1513,-0.1514,-0.1521,-0.145,-0.145,-0.145,0,0,-0.1681,-0.166,-0.1657,-0.1641,-0.1636,-0.1645,-0.1625,-0.1644,-0.1651,-0.1604,-0.1605,-0.1576,-0.1535,-0.1527,-0.1519,-0.1508,-0.1521,-0.1502,-0.1506,-0.1513,-0.1514,-0.1521,-0.1528,-0.1449,-0.145,-0.145,0,0,-0.1739,-0.1708,-0.1712,-0.1704,-0.1696,-0.1683,-0.1687,-0.1679,-0.1674,-0.1662,-0.1633,-0.1615,-0.1576,-0.1562,-0.1547,-0.1551,-0.1543,-0.1536,-0.1578,-0.158,-0.1587,-0.1593,-0.1609,-0.1615,-0.1538,-0.1538,-0.1538,0,-0.1776,-0.1766,-0.1725,-0.1733,-0.1739,-0.1699,-0.172,-0.1709,-0.1694,-0.1692,-0.1673,-0.1627,-0.1599,-0.1593,-0.1593,-0.1568,-0.1564,-0.1574,-0.159,-0.1596,-0.16,-0.1615,-0.1621,-0.1542,-0.1542,-0.1541,-0.1541,0,-0.1827,-0.1822,-0.1836,-0.1806,-0.1809,-0.1826,-0.18,-0.1796,-0.1774,-0.1759,-0.1747,-0.1703,-0.1677,-0.1664,-0.1631,-0.1645,-0.1632,-0.1602,-0.1592,-0.1614,-0.1626,-0.1632,-0.1548,-0.1546,-0.1545,-0.1544,0,0,-0.1898,-0.1871,-0.1873,-0.1866,-0.1847,-0.1854,-0.1863,-0.1855,-0.1858,-0.1833,-0.1842,-0.1803,-0.1774,-0.1752,-0.1712,-0.1708,-0.1743,-0.1671,-0.1669,-0.1711,-0.1759,-0.1792,-0.1801,-0.1717,-0.1718,-0.1718,-0.1761,0,-0.1945,-0.1959,-0.1939,-0.1962,-0.1967,-0.1938,-0.1942,-0.1932,-0.1911,-0.1906,-0.187,-0.1851,-0.1808,-0.1791,-0.1787,-0.1739,-0.1757,-0.1735,-0.1709,-0.1709,-0.1756,-0.1808,-0.1798,-0.1839,-0.1766,-0.1767,-0.1767,0,-0.1989,-0.1989,-0.2013,-0.2009,-0.2011,-0.202,-0.2014,-0.2016,-0.1997,-0.1983,-0.1969,-0.1928,-0.1911,-0.1869,-0.1842,-0.1827,-0.181,-0.1783,-0.1783,-0.1789,-0.1752,-0.1798,-0.185,-0.171,-0.1775,-0.1774,-0.1774,0,-0.2023,-0.204,-0.2052,-0.2054,-0.2046,-0.2058,-0.2055,-0.204,-0.2038,-0.2029,-0.2024,-0.1998,-0.1973,-0.1948,-0.1886,-0.1865,-0.1864,-0.1827,-0.1855,-0.1857,-0.1832,-0.183,-0.1767,-0.1844,-0.1844,-0.1844,-0.1844,0,-0.2057,-0.2068,-0.2067,-0.2072,-0.2097,-0.2086,-0.2102,-0.2098,-0.209,-0.2095,-0.206,-0.2055,-0.1988,-0.1967,-0.1924,-0.1912,-0.19,-0.1887,-0.1878,-0.1861,-0.1862,-0.1723,-0.1573,-0.1845,-0.1845,-0.1845,-0.1844,0,-0.2067,-0.2066,-0.2087,-0.2098,-0.2105,-0.212,-0.2126,-0.2132,-0.2123,-0.2133,-0.213,-0.2096,-0.2067,-0.2017,-0.1973,-0.1962,-0.1875,-0.1946,-0.1942,-0.1933,-0.1839,-0.1693,-0.1668,-0.1635,-0.1997,-0.1998,-0.1999,0,-0.2059,-0.2068,-0.2103,-0.2121,-0.2124,-0.2142,-0.2149,-0.2148,-0.2157,-0.2157,-0.2165,-0.2141,-0.2133,-0.2097,-0.208,-0.2062,-0.1898,-0.2023,-0.199,-0.1857,-0.1686,-0.166,-0.1631,-0.1989,-0.199,-0.199,-0.1991,0,-0.2049,-0.2065,-0.2082,-0.2118,-0.214,-0.2164,-0.218,-0.2196,-0.2198,-0.2201,-0.2202,-0.2198,-0.2202,-0.2183,-0.217,-0.2131,-0.1909,-0.204,-0.1889,-0.1675,-0.1652,-0.1608,-0.1938,-0.1997,-0.1996,-0.1996,-0.1996,-0.1995,-0.2036,-0.205,-0.2072,-0.2101,-0.2135,-0.2165,-0.2155,-0.2186,-0.2194,-0.2179,-0.223,-0.2167,-0.2163,-0.2161,-0.2169,-0.2031,-0.199,-0.1914,-0.1752,-0.1749,-0.1698,-0.2065,-0.2118,-0.2118,-0.2118,-0.2118,-0.2118,0,-0.2004,-0.2018,-0.2047,-0.2076,-0.2092,-0.2118,-0.2146,-0.2106,-0.2097,-0.2099,-0.2104,-0.2002,-0.2021,-0.1956,-0.1863,-0.1744,-0.1768,-0.1588,-0.1498,-0.1487,-0.1805,-0.1785,-0.1782,-0.1782,-0.1782,-0.1782,-0.1783,-0.1783,-0.1979,-0.1988,-0.1996,-0.2001,-0.2022,-0.1974,-0.1968,-0.1929,-0.1879,-0.1762,-0.1653,-0.1627,-0.1438,-0.1365,-0.1252,-0.1263,-0.1119,-0.1134,-0.1057,-0.1176,-0.1194,-0.1211,-0.1163,-0.103,-0.1029,-0.0857,-0.0854,-0.0851]},{"header":{"parameterUnit":"m.s-1","parameterCategory":2,"la1":30.2991,"la2":30.254,"lo1":-89.0895,"lo2":-89.0444,"dx":0.0017,"dy":0.0017,"nx":28,"ny":28,"refTime":"2022-11-07T03:00:00:Z","depth":"0","parameterNumber":3,"parameterNumberName":"V-component_of_CURRENTS"},"data":[0,0,0,0,0,0,0,0,0,0,0,0,0,0,0,0,0,0,0,0,0,0,0,0,0,0,0,0,0,0,0,0,0,0,0,0,0,0,0,0,0,0,0,0,0,0,0,0,0,0,0,0,0,0,0,0,0,0,-0.0641,-0.064,0,-0.0576,-0.0576,-0.0575,-0.0553,-0.0553,-0.0553,-0.0553,-0.0539,-0.0539,-0.0538,0,0,0,0,0,0,0,0,0,0,0,0,0,-0.0692,-0.0692,-0.0641,-0.064,-0.0639,-0.0576,-0.0576,-0.0575,-0.0553,-0.0553,-0.0553,-0.0553,-0.0539,-0.0539,-0.0538,0,0,0,0,0,0,0,0,0,0,0,0,0,-0.0655,-0.0692,-0.0642,-0.0619,-0.0616,-0.0576,-0.0576,-0.0575,-0.0553,-0.0553,-0.0553,-0.0553,-0.0539,-0.0539,-0.0538,-0.0532,0,0,-0.0536,-0.0536,0,0,0,0,0,0,0,0,-0.0657,-0.0653,-0.0623,-0.0621,-0.0617,-0.0571,-0.0588,-0.0562,-0.0553,-0.0579,-0.0553,-0.0553,-0.0553,-0.0551,-0.0541,-0.0531,-0.0531,-0.0536,-0.0536,-0.0535,-0.0535,0,0,0,0,0,0,0,-0.066,-0.0656,-0.0618,-0.0622,-0.0619,-0.0593,-0.0589,-0.0583,-0.0569,-0.0577,-0.0575,-0.0564,-0.0552,-0.0542,-0.0541,-0.053,-0.0536,-0.0535,-0.0535,-0.0535,-0.048,-0.0479,0,0,0,0,0,0,-0.0666,-0.0658,-0.062,-0.0616,-0.0635,-0.0593,-0.0588,-0.0588,-0.0568,-0.0564,-0.0564,-0.0563,-0.0543,-0.0541,-0.054,-0.053,-0.0535,-0.0535,-0.0534,-0.0481,-0.048,-0.0479,0,0,0,0,0,0,-0.0668,-0.0664,-0.0622,-0.0633,-0.0626,-0.0592,-0.0592,-0.0586,-0.0574,-0.0557,-0.0555,-0.0557,-0.0543,-0.0541,-0.0517,-0.0529,-0.0534,-0.0534,-0.0482,-0.0481,-0.0479,-0.0511,0,0,0,0,0,0,-0.067,-0.0665,-0.0671,-0.0634,-0.0625,-0.0602,-0.0591,-0.0585,-0.0566,-0.0564,-0.055,-0.0549,-0.0543,-0.0518,-0.0516,-0.0529,-0.0533,-0.0484,-0.0481,-0.048,-0.0511,-0.0511,-0.051,0,0,0,0,0,-0.0672,-0.0684,-0.0672,-0.0667,-0.0634,-0.0601,-0.0595,-0.0572,-0.0566,-0.0561,-0.0537,-0.0549,-0.0504,-0.0516,-0.0514,-0.0527,-0.0484,-0.0482,-0.048,-0.0512,-0.0511,-0.051,0,0,0,0,0,0,-0.0707,-0.0681,-0.0668,-0.0671,-0.0637,-0.0597,-0.0592,-0.0572,-0.0549,-0.055,-0.0534,-0.053,-0.0515,-0.0506,-0.0519,-0.05,-0.0497,-0.0495,-0.0522,-0.0521,-0.0521,-0.0546,-0.0533,0,0,0,0,0,-0.0717,-0.0722,-0.0681,-0.0682,-0.0668,-0.0628,-0.0613,-0.0594,-0.0566,-0.0556,-0.0541,-0.0522,-0.0504,-0.05,-0.0483,-0.0475,-0.0484,-0.0479,-0.0478,-0.0478,-0.0494,-0.0498,-0.0501,-0.0471,-0.0471,-0.0471,0,0,-0.0729,-0.0716,-0.0717,-0.0689,-0.0664,-0.0645,-0.0621,-0.0599,-0.0586,-0.0559,-0.0544,-0.0521,-0.0497,-0.0484,-0.0478,-0.0481,-0.049,-0.0475,-0.0476,-0.0492,-0.0497,-0.05,-0.0503,-0.0469,-0.0469,-0.047,0,0,-0.075,-0.0743,-0.0748,-0.0723,-0.0687,-0.0662,-0.0655,-0.0613,-0.06,-0.0571,-0.0549,-0.053,-0.05,-0.0491,-0.0481,-0.0465,-0.0484,-0.0457,-0.0485,-0.0489,-0.0492,-0.0496,-0.0517,-0.0522,-0.0462,-0.0462,-0.0462,0,-0.0765,-0.0765,-0.0742,-0.0732,-0.0714,-0.0671,-0.0661,-0.0639,-0.0594,-0.0589,-0.057,-0.0528,-0.0507,-0.0501,-0.0489,-0.0471,-0.0478,-0.0495,-0.0492,-0.0496,-0.0499,-0.0519,-0.0525,-0.0463,-0.0463,-0.0463,-0.0462,0,-0.0782,-0.0777,-0.0776,-0.0754,-0.0732,-0.0718,-0.0678,-0.0665,-0.064,-0.0617,-0.0599,-0.0561,-0.0541,-0.0527,-0.0503,-0.0511,-0.0512,-0.0491,-0.0505,-0.0504,-0.0525,-0.053,-0.0465,-0.0464,-0.0464,-0.0464,0,0,-0.0824,-0.0797,-0.0794,-0.0785,-0.0744,-0.0728,-0.0714,-0.0691,-0.0692,-0.0653,-0.0654,-0.0611,-0.0594,-0.058,-0.0552,-0.0554,-0.0573,-0.0533,-0.0533,-0.0575,-0.0598,-0.0625,-0.0633,-0.0553,-0.0554,-0.0555,-0.0608,0,-0.084,-0.0837,-0.0816,-0.0804,-0.0794,-0.0759,-0.075,-0.0726,-0.0703,-0.0695,-0.0668,-0.0649,-0.0613,-0.0601,-0.0598,-0.0571,-0.0586,-0.0562,-0.0575,-0.0576,-0.0617,-0.0639,-0.0585,-0.063,-0.0613,-0.0614,-0.0614,0,-0.0858,-0.0855,-0.0851,-0.083,-0.0823,-0.0812,-0.0799,-0.0784,-0.0767,-0.075,-0.0737,-0.0707,-0.0696,-0.0661,-0.0653,-0.0638,-0.0627,-0.0614,-0.0615,-0.0637,-0.0612,-0.0623,-0.064,-0.0496,-0.0622,-0.0621,-0.0621,0,-0.0892,-0.0876,-0.0878,-0.0868,-0.084,-0.084,-0.0827,-0.0807,-0.0804,-0.0788,-0.0788,-0.0766,-0.0754,-0.0736,-0.0701,-0.0676,-0.0705,-0.0664,-0.0689,-0.0691,-0.0648,-0.0646,-0.0546,-0.068,-0.068,-0.0679,-0.0679,0,-0.0912,-0.0911,-0.0896,-0.0895,-0.0905,-0.0871,-0.088,-0.0867,-0.0855,-0.0867,-0.082,-0.0831,-0.077,-0.0769,-0.0736,-0.0741,-0.0736,-0.0715,-0.0712,-0.0657,-0.0654,-0.0529,-0.0458,-0.0681,-0.0681,-0.0681,-0.068,0,-0.0933,-0.0923,-0.0928,-0.0917,-0.0917,-0.0923,-0.0914,-0.0927,-0.0904,-0.0921,-0.0917,-0.0887,-0.0885,-0.0847,-0.0825,-0.0795,-0.0727,-0.0795,-0.0747,-0.0738,-0.062,-0.0553,-0.0533,-0.0493,-0.083,-0.0831,-0.0831,0,-0.0936,-0.0943,-0.0953,-0.0969,-0.0964,-0.0969,-0.0981,-0.0957,-0.0971,-0.0965,-0.0986,-0.0978,-0.0998,-0.0984,-0.0912,-0.0887,-0.0775,-0.0823,-0.0763,-0.0627,-0.0548,-0.0523,-0.0488,-0.0715,-0.0715,-0.0715,-0.0715,0,-0.0949,-0.0961,-0.0973,-0.1018,-0.1036,-0.1054,-0.1067,-0.1084,-0.1068,-0.1079,-0.1109,-0.1125,-0.1087,-0.1024,-0.0973,-0.0936,-0.0711,-0.0822,-0.0675,-0.046,-0.0431,-0.0385,-0.0677,-0.0714,-0.0714,-0.0714,-0.0714,-0.0714,-0.0965,-0.0992,-0.1032,-0.1079,-0.1106,-0.1153,-0.1178,-0.1194,-0.1226,-0.1211,-0.1223,-0.1166,-0.1046,-0.0965,-0.0929,-0.07,-0.0734,-0.0598,-0.0535,-0.0529,-0.0464,-0.0779,-0.0815,-0.0815,-0.0816,-0.0816,-0.0817,0,-0.0997,-0.1047,-0.1093,-0.1166,-0.1228,-0.1215,-0.1252,-0.1264,-0.1317,-0.1203,-0.1219,-0.0987,-0.0912,-0.0729,-0.0486,-0.0378,-0.0358,-0.0303,-0.0195,-0.018,-0.0438,-0.0401,-0.0355,-0.0355,-0.0355,-0.0355,-0.0356,-0.0356,-0.1016,-0.1093,-0.1137,-0.1272,-0.1318,-0.1378,-0.1397,-0.138,-0.1288,-0.1063,-0.0821,-0.0655,-0.0352,-0.0164,0.0048,0.0036,0.0145,0.0097,0.0131,0.005,0.003,0.0011,0.0065,0.0208,0.0209,0.0392,0.0395,0.0397]}],[{"header":{"parameterUnit":"m.s-1","parameterCategory":2,"la1":30.2991,"la2":30.254,"lo1":-89.0895,"lo2":-89.0444,"dx":0.0017,"dy":0.0017,"nx":28,"ny":28,"refTime":"2022-11-07T03:00:00:Z","depth":"2","parameterNumber":2,"parameterNumberName":"U-component_of_CURRENTS"},"data":[0,0,0,0,0,0,0,0,0,0,0,0,0,0,0,0,0,0,0,0,0,0,0,0,0,0,0,0,0,0,0,0,0,0,0,0,0,0,0,0,0,0,0,0,0,0,0,0,0,0,0,0,0,0,0,0,0,0,-0.02,-0.02,0,-0.0229,-0.0229,-0.023,-0.029,-0.0291,-0.0293,-0.0294,-0.0263,-0.0261,-0.0259,0,0,0,0,0,0,0,0,0,0,0,0,0,-0.0166,-0.0166,-0.02,-0.02,-0.0201,-0.0229,-0.0229,-0.023,-0.029,-0.0291,-0.0293,-0.0295,-0.0264,-0.0262,-0.0259,0,0,0,0,0,0,0,0,0,0,0,0,0,-0.0185,-0.0166,-0.02,-0.0235,-0.0239,-0.0229,-0.0229,-0.023,-0.0289,-0.0291,-0.0293,-0.0295,-0.0265,-0.0262,-0.0259,-0.0198,0,0,-0.0249,-0.0248,0,0,0,0,0,0,0,0,-0.0184,-0.0186,-0.023,-0.0233,-0.0237,-0.026,-0.0206,-0.0217,-0.0289,-0.0268,-0.0294,-0.0296,-0.0256,-0.0254,-0.0253,-0.0197,-0.0196,-0.0249,-0.0247,-0.0246,-0.0245,0,0,0,0,0,0,0,-0.0182,-0.0185,-0.021,-0.023,-0.0235,-0.024,-0.0245,-0.0209,-0.0248,-0.027,-0.0275,-0.0281,-0.0258,-0.0256,-0.0253,-0.0195,-0.0249,-0.0246,-0.0244,-0.0243,-0.0218,-0.0219,0,0,0,0,0,0,-0.0181,-0.0183,-0.0209,-0.0211,-0.0217,-0.0239,-0.0245,-0.0249,-0.025,-0.0253,-0.0279,-0.0283,-0.026,-0.0256,-0.0252,-0.0288,-0.0246,-0.0243,-0.0241,-0.0217,-0.0218,-0.0219,0,0,0,0,0,0,-0.018,-0.0183,-0.0208,-0.0199,-0.0203,-0.0238,-0.0242,-0.0248,-0.0273,-0.0257,-0.0259,-0.0301,-0.0262,-0.0256,-0.0252,-0.0283,-0.0241,-0.0238,-0.0215,-0.0217,-0.0219,-0.029,0,0,0,0,0,0,-0.0179,-0.0183,-0.0191,-0.0199,-0.0204,-0.0229,-0.024,-0.0247,-0.0273,-0.028,-0.0275,-0.0274,-0.0263,-0.0257,-0.0249,-0.0278,-0.0236,-0.0214,-0.0216,-0.0218,-0.0286,-0.0294,-0.0301,0,0,0,0,0,-0.0178,-0.0195,-0.0191,-0.0195,-0.0212,-0.023,-0.0233,-0.0263,-0.0272,-0.0291,-0.0289,-0.0275,-0.0267,-0.0255,-0.0245,-0.0274,-0.0213,-0.0215,-0.0218,-0.0283,-0.0293,-0.0301,0,0,0,0,0,0,-0.0204,-0.0202,-0.0199,-0.0219,-0.0231,-0.0242,-0.0265,-0.0269,-0.0281,-0.0291,-0.0273,-0.0271,-0.0283,-0.0262,-0.0249,-0.0276,-0.0243,-0.0244,-0.0296,-0.0305,-0.0312,-0.0321,-0.0233,0,0,0,0,0,-0.0204,-0.0209,-0.0212,-0.0231,-0.0238,-0.0246,-0.0258,-0.0273,-0.0281,-0.0291,-0.0287,-0.0284,-0.0279,-0.0281,-0.027,-0.0266,-0.0275,-0.0285,-0.0293,-0.0299,-0.0302,-0.0332,-0.0342,-0.0228,-0.0228,-0.0228,0,0,-0.0221,-0.022,-0.0226,-0.0235,-0.0246,-0.0263,-0.0261,-0.0289,-0.031,-0.0279,-0.0312,-0.03,-0.0283,-0.0298,-0.0302,-0.0289,-0.0344,-0.0302,-0.0308,-0.0307,-0.0336,-0.0347,-0.0357,-0.023,-0.023,-0.023,0,0,-0.0257,-0.0256,-0.027,-0.0275,-0.0289,-0.0292,-0.0303,-0.0318,-0.0339,-0.0347,-0.0344,-0.0355,-0.0338,-0.0348,-0.0344,-0.0378,-0.0378,-0.038,-0.0427,-0.0457,-0.0466,-0.0475,-0.0537,-0.0551,-0.0389,-0.0389,-0.0389,0,-0.0285,-0.029,-0.0282,-0.0296,-0.0308,-0.0308,-0.0332,-0.0345,-0.036,-0.038,-0.0373,-0.0386,-0.0365,-0.0397,-0.0414,-0.0396,-0.0421,-0.0395,-0.0467,-0.0475,-0.0483,-0.0544,-0.0558,-0.0393,-0.0393,-0.0392,-0.0392,0,-0.0323,-0.0328,-0.0343,-0.035,-0.0365,-0.0387,-0.0396,-0.0421,-0.0433,-0.0444,-0.0482,-0.0463,-0.0473,-0.0477,-0.0447,-0.0498,-0.0506,-0.047,-0.0446,-0.0499,-0.056,-0.0574,-0.0398,-0.0397,-0.0396,-0.0395,0,0,-0.0389,-0.0371,-0.0377,-0.0383,-0.0393,-0.0413,-0.0449,-0.0484,-0.0528,-0.0536,-0.0592,-0.0579,-0.0573,-0.0567,-0.055,-0.0575,-0.0651,-0.0547,-0.0547,-0.0613,-0.0751,-0.0819,-0.084,-0.0629,-0.0631,-0.0632,-0.0787,0,-0.0427,-0.0439,-0.043,-0.0465,-0.0475,-0.0484,-0.0523,-0.0555,-0.0582,-0.0635,-0.0634,-0.0661,-0.0607,-0.0616,-0.0634,-0.0634,-0.0683,-0.0614,-0.0686,-0.0689,-0.0745,-0.0856,-0.058,-0.07,-0.08,-0.0802,-0.0803,0,-0.0469,-0.0466,-0.0486,-0.051,-0.0524,-0.0549,-0.0618,-0.065,-0.0709,-0.0732,-0.0759,-0.0753,-0.078,-0.0726,-0.0778,-0.0738,-0.0752,-0.0762,-0.0767,-0.081,-0.0781,-0.0655,-0.072,-0.0825,-0.0823,-0.0822,-0.082,0,-0.0496,-0.0517,-0.0528,-0.0531,-0.0556,-0.059,-0.0621,-0.0682,-0.0733,-0.0786,-0.0833,-0.0854,-0.0875,-0.0884,-0.0876,-0.0834,-0.0955,-0.0897,-0.099,-0.0995,-0.0765,-0.0748,-0.0961,-0.0961,-0.096,-0.096,-0.0959,0,-0.052,-0.0543,-0.0541,-0.0541,-0.0601,-0.0613,-0.0694,-0.073,-0.0806,-0.0888,-0.0873,-0.0942,-0.0911,-0.0963,-0.0944,-0.1026,-0.1009,-0.1036,-0.1049,-0.0789,-0.0774,-0.0862,-0.0849,-0.0966,-0.0964,-0.0963,-0.0962,0,-0.0536,-0.053,-0.055,-0.0576,-0.06,-0.0639,-0.0729,-0.0808,-0.085,-0.0959,-0.0975,-0.1027,-0.1099,-0.1103,-0.1144,-0.1136,-0.1184,-0.1216,-0.0941,-0.0921,-0.1194,-0.1182,-0.1358,-0.1362,-0.1365,-0.1368,-0.137,0,-0.0545,-0.054,-0.0566,-0.0607,-0.0621,-0.0685,-0.0762,-0.0821,-0.0907,-0.102,-0.1092,-0.1177,-0.126,-0.1364,-0.1308,-0.1345,-0.1331,-0.1154,-0.103,-0.1246,-0.1239,-0.1222,-0.1206,-0.0753,-0.075,-0.0748,-0.0746,0,-0.0552,-0.0549,-0.0561,-0.0637,-0.071,-0.0799,-0.0898,-0.0961,-0.1057,-0.1134,-0.1266,-0.1332,-0.1402,-0.1286,-0.1317,-0.1294,-0.1121,-0.1119,-0.139,-0.0723,-0.0695,-0.0683,-0.0683,-0.0724,-0.0726,-0.0728,-0.0729,-0.073,-0.0568,-0.0575,-0.0597,-0.0669,-0.0784,-0.0911,-0.0929,-0.1061,-0.1167,-0.1215,-0.1341,-0.13,-0.12,-0.1121,-0.1104,-0.1047,-0.1166,-0.1002,-0.0999,-0.1001,-0.0932,-0.0914,-0.0973,-0.0976,-0.0979,-0.0982,-0.0984,0,-0.0567,-0.058,-0.0649,-0.0728,-0.0834,-0.091,-0.1025,-0.0996,-0.1072,-0.1146,-0.1208,-0.0975,-0.0875,-0.0802,-0.0663,-0.0723,-0.0629,-0.0686,-0.0446,-0.0466,-0.0485,-0.038,-0.028,-0.0279,-0.0279,-0.0278,0,0,-0.0571,-0.0597,-0.0611,-0.074,-0.0822,-0.0897,-0.0924,-0.0907,-0.0889,-0.087,-0.0779,-0.0794,-0.0725,-0.0454,-0.0427,-0.0321,-0.041,-0.0314,-0.0853,-0.0586,-0.0604,-0.0623,-0.0484,0,0,0,0,0]},{"header":{"parameterUnit":"m.s-1","parameterCategory":2,"la1":30.2991,"la2":30.254,"lo1":-89.0895,"lo2":-89.0444,"dx":0.0017,"dy":0.0017,"nx":28,"ny":28,"refTime":"2022-11-07T03:00:00:Z","depth":"2","parameterNumber":3,"parameterNumberName":"V-component_of_CURRENTS"},"data":[0,0,0,0,0,0,0,0,0,0,0,0,0,0,0,0,0,0,0,0,0,0,0,0,0,0,0,0,0,0,0,0,0,0,0,0,0,0,0,0,0,0,0,0,0,0,0,0,0,0,0,0,0,0,0,0,0,0,-0.01,-0.01,0,-0.0078,-0.0078,-0.0077,-0.0111,-0.0112,-0.0114,-0.0115,-0.0104,-0.0103,-0.0101,0,0,0,0,0,0,0,0,0,0,0,0,0,-0.0051,-0.0052,-0.01,-0.01,-0.01,-0.0078,-0.0078,-0.0077,-0.0111,-0.0112,-0.0114,-0.0116,-0.0105,-0.0103,-0.0101,0,0,0,0,0,0,0,0,0,0,0,0,0,-0.0053,-0.0053,-0.01,-0.0116,-0.0117,-0.0079,-0.0078,-0.0077,-0.011,-0.0112,-0.0115,-0.0116,-0.0106,-0.0103,-0.0101,-0.0045,0,0,-0.0094,-0.0093,0,0,0,0,0,0,0,0,-0.0053,-0.0054,-0.0113,-0.0115,-0.0116,-0.0102,-0.0057,-0.0068,-0.011,-0.011,-0.0115,-0.0118,-0.0105,-0.0102,-0.009,-0.0044,-0.0044,-0.0094,-0.0092,-0.0091,-0.009,0,0,0,0,0,0,0,-0.0053,-0.0055,-0.0089,-0.0113,-0.0115,-0.0083,-0.0087,-0.0058,-0.0094,-0.011,-0.0113,-0.0114,-0.0105,-0.0092,-0.009,-0.0044,-0.0094,-0.0091,-0.009,-0.0089,-0.0015,-0.0015,0,0,0,0,0,0,-0.0065,-0.0055,-0.009,-0.0089,-0.0092,-0.0083,-0.0087,-0.0102,-0.0094,-0.0096,-0.0113,-0.0116,-0.0095,-0.0093,-0.009,-0.0082,-0.0091,-0.0089,-0.0087,-0.0016,-0.0015,-0.0015,0,0,0,0,0,0,-0.0064,-0.0068,-0.0091,-0.0072,-0.0073,-0.0083,-0.0099,-0.0101,-0.0111,-0.0096,-0.0098,-0.0125,-0.0097,-0.0093,-0.0082,-0.008,-0.0088,-0.0086,-0.0017,-0.0016,-0.0015,-0.0029,0,0,0,0,0,0,-0.0063,-0.0068,-0.0088,-0.0074,-0.0075,-0.0079,-0.0097,-0.0099,-0.0108,-0.0113,-0.0106,-0.0107,-0.0098,-0.0085,-0.0079,-0.0077,-0.0084,-0.0017,-0.0016,-0.0015,-0.0029,-0.0029,-0.0029,0,0,0,0,0,-0.0061,-0.0083,-0.009,-0.0094,-0.0101,-0.0079,-0.0076,-0.0087,-0.0107,-0.0105,-0.0106,-0.0108,-0.0075,-0.0082,-0.0076,-0.0073,-0.0018,-0.0017,-0.0015,-0.003,-0.0029,-0.0029,0,0,0,0,0,0,-0.0064,-0.0088,-0.0095,-0.0122,-0.0106,-0.0086,-0.0095,-0.0093,-0.0089,-0.0107,-0.0095,-0.0094,-0.0084,-0.0071,-0.0079,-0.0048,-0.0048,-0.0045,-0.0061,-0.006,-0.006,-0.0069,-0.0082,0,0,0,0,0,-0.0074,-0.0108,-0.0098,-0.0118,-0.0117,-0.0105,-0.0103,-0.0105,-0.0097,-0.0099,-0.0092,-0.0084,-0.0066,-0.0061,-0.0043,-0.0019,-0.0014,-0.0014,-0.0013,-0.0013,-0.0015,0.0002,0.0003,-0.0011,-0.0011,-0.0011,0,0,-0.0079,-0.0098,-0.0115,-0.0122,-0.0118,-0.0104,-0.011,-0.0111,-0.0099,-0.0096,-0.009,-0.0082,-0.0059,-0.004,-0.0034,-0.0034,-0.0008,-0.0011,-0.0012,-0.0014,0.0003,0.0005,0.0006,-0.001,-0.001,-0.001,0,0,-0.0094,-0.0123,-0.0148,-0.0137,-0.0137,-0.0121,-0.0125,-0.011,-0.011,-0.0089,-0.009,-0.008,-0.0051,-0.0034,-0.002,-0.0001,-0.0007,-0.0004,-0.0008,0.0009,0.0009,0.001,0.0009,0.0009,-0.0003,-0.0003,-0.0003,0,-0.0096,-0.0129,-0.0143,-0.0148,-0.0141,-0.0131,-0.0124,-0.0107,-0.0089,-0.0083,-0.0095,-0.0056,-0.0042,-0.0011,-0.0014,0.0,-0.0005,-0.0014,0.0008,0.0009,0.001,0.0008,0.0009,-0.0004,-0.0004,-0.0004,-0.0004,0,-0.0116,-0.0137,-0.0146,-0.0156,-0.0142,-0.0138,-0.0112,-0.0103,-0.0103,-0.0084,-0.0065,-0.0043,-0.0027,-0.0016,-0.0012,0.0005,-0.0007,0.0004,0.0002,0.001,0.0008,0.0009,-0.0005,-0.0004,-0.0004,-0.0004,0,0,-0.0133,-0.0158,-0.0163,-0.0164,-0.0149,-0.0136,-0.0116,-0.0087,-0.0083,-0.0062,-0.0049,-0.0017,-0.0026,-0.0011,-0.0003,0.0013,0.0013,0.0001,0.0002,-0.0009,0.0025,0.0061,0.0066,0.0017,0.0018,0.0018,0.0016,0,-0.0141,-0.0163,-0.0165,-0.0158,-0.0158,-0.0136,-0.0115,-0.0089,-0.0072,-0.0056,-0.0029,-0.002,-0.0016,-0.0025,-0.0006,0.0008,0.0017,0.0011,0.0026,0.0026,0.0051,0.007,0.0138,0.0146,0.0017,0.0018,0.0018,0,-0.0159,-0.0172,-0.0182,-0.017,-0.0167,-0.0158,-0.0133,-0.0112,-0.0079,-0.0071,-0.0055,-0.0042,-0.0021,-0.0021,0.001,-0.0003,0.0002,0.0019,0.002,0.006,0.0066,0.012,0.0153,0.002,0.002,0.002,0.002,0,-0.0175,-0.0179,-0.0194,-0.0189,-0.0172,-0.0173,-0.0161,-0.0129,-0.0117,-0.0096,-0.0094,-0.0059,-0.0061,-0.0032,-0.0017,-0.0011,0.0013,0.0034,0.0076,0.0077,0.0144,0.0152,0.0056,0.0056,0.0056,0.0056,0.0056,0,-0.0185,-0.0194,-0.0212,-0.0216,-0.0222,-0.0203,-0.0203,-0.0185,-0.0165,-0.0154,-0.0123,-0.0108,-0.0069,-0.0049,-0.0024,0.0023,0.0005,0.0078,0.0087,0.0141,0.0148,0.0049,0.0048,0.0056,0.0056,0.0056,0.0056,0,-0.0202,-0.0217,-0.0229,-0.0231,-0.0236,-0.0244,-0.0239,-0.0238,-0.022,-0.0208,-0.0209,-0.0159,-0.0132,-0.0094,-0.0051,0.001,0.0055,0.0069,0.0119,0.0135,0.0111,0.011,0.0143,0.0145,0.0146,0.0147,0.0148,0,-0.0217,-0.023,-0.025,-0.027,-0.0281,-0.0293,-0.0302,-0.0278,-0.027,-0.0232,-0.0225,-0.0199,-0.0146,-0.0063,0.0054,0.0128,0.0046,0.0193,0.0243,0.0119,0.0124,0.012,0.0117,0.0315,0.0318,0.0319,0.0321,0,-0.0231,-0.0248,-0.026,-0.0309,-0.0335,-0.0342,-0.035,-0.0341,-0.031,-0.0278,-0.0235,-0.0185,-0.0066,0.0082,0.0176,0.0222,0.0198,0.0233,0.0095,0.0286,0.0283,0.0287,0.0278,0.0336,0.0335,0.0334,0.0333,0.0332,-0.0251,-0.0267,-0.0305,-0.0347,-0.0382,-0.0398,-0.0395,-0.0366,-0.0331,-0.0238,-0.0197,-0.0072,0.0069,0.0293,0.0312,0.0328,0.0359,0.0361,0.0355,0.0347,0.0371,0.0371,0.0444,0.0443,0.0442,0.0441,0.0441,0,-0.0267,-0.03,-0.0344,-0.0392,-0.0437,-0.0452,-0.0435,-0.0406,-0.0347,-0.0183,-0.0082,0.0087,0.0286,0.0322,0.0445,0.0518,0.05,0.0432,0.0417,0.0407,0.0397,0.0419,0.0506,0.0505,0.0504,0.0503,0,0,-0.0284,-0.0331,-0.0357,-0.0444,-0.0488,-0.0528,-0.052,-0.0444,-0.0318,-0.014,0.0015,0.0288,0.0374,0.0446,0.0508,0.0494,0.0411,0.0469,0.0441,0.0415,0.0401,0.041,0.0442,0,0,0,0,0]}],[{"header":{"parameterUnit":"m.s-1","parameterCategory":2,"la1":30.2991,"la2":30.254,"lo1":-89.0895,"lo2":-89.0444,"dx":0.0017,"dy":0.0017,"nx":28,"ny":28,"refTime":"2022-11-07T03:00:00:Z","depth":"4","parameterNumber":2,"parameterNumberName":"U-component_of_CURRENTS"},"data":[0,0,0,0,0,0,0,0,0,0,0,0,0,0,0,0,0,0,0,0,0,0,0,0,0,0,0,0,0,0,0,0,0,0,0,0,0,0,0,0,0,0,0,0,0,0,0,0,0,0,0,0,0,0,0,0,0,0,-0.0313,-0.0313,0,-0.0304,-0.0304,-0.0303,-0.0292,-0.0292,-0.0292,-0.0292,-0.0325,-0.0326,-0.0327,0,0,0,0,0,0,0,0,0,0,0,0,0,-0.0297,-0.0297,-0.0313,-0.0313,-0.0313,-0.0304,-0.0304,-0.0303,-0.0292,-0.0292,-0.0292,-0.0292,-0.0324,-0.0325,-0.0327,0,0,0,0,0,0,0,0,0,0,0,0,0,-0.0297,-0.0297,-0.0313,-0.0307,-0.0306,-0.0304,-0.0304,-0.0303,-0.0292,-0.0292,-0.0292,-0.0292,-0.0324,-0.0325,-0.0327,-0.0339,0,0,-0.0331,-0.0332,0,0,0,0,0,0,0,0,-0.0297,-0.0297,-0.0308,-0.0307,-0.0307,-0.03,-0.031,-0.0318,-0.0292,-0.0297,-0.0292,-0.0292,-0.0321,-0.0322,-0.0319,-0.034,-0.0342,-0.0331,-0.0332,-0.0333,-0.0333,0,0,0,0,0,0,0,-0.0297,-0.0297,-0.0309,-0.0308,-0.0307,-0.0296,-0.0296,-0.0311,-0.031,-0.0297,-0.0296,-0.0296,-0.0321,-0.0318,-0.032,-0.0342,-0.0331,-0.0333,-0.0333,-0.0334,-0.039,-0.039,0,0,0,0,0,0,-0.0301,-0.0298,-0.0309,-0.0309,-0.0302,-0.0297,-0.0297,-0.0302,-0.0309,-0.031,-0.0296,-0.0296,-0.0316,-0.0319,-0.0321,-0.0339,-0.0333,-0.0334,-0.0335,-0.0389,-0.039,-0.039,0,0,0,0,0,0,-0.0301,-0.0302,-0.031,-0.0303,-0.0303,-0.0297,-0.0303,-0.0301,-0.0301,-0.0308,-0.031,-0.0298,-0.0316,-0.0319,-0.0336,-0.0341,-0.0335,-0.0336,-0.0388,-0.0389,-0.039,-0.0374,0,0,0,0,0,0,-0.03,-0.0302,-0.0306,-0.0303,-0.0304,-0.0307,-0.0303,-0.0301,-0.0302,-0.0301,-0.031,-0.0313,-0.0316,-0.0333,-0.0337,-0.0343,-0.0337,-0.0387,-0.0389,-0.039,-0.0374,-0.0374,-0.0374,0,0,0,0,0,-0.03,-0.0303,-0.0306,-0.0307,-0.031,-0.0307,-0.0306,-0.03,-0.0302,-0.03,-0.0309,-0.0313,-0.0343,-0.0335,-0.0339,-0.0345,-0.0387,-0.0388,-0.039,-0.0373,-0.0374,-0.0374,0,0,0,0,0,0,-0.0291,-0.0303,-0.0305,-0.0311,-0.031,-0.0305,-0.0303,-0.0303,-0.0308,-0.031,-0.0318,-0.0321,-0.0336,-0.0348,-0.0338,-0.0366,-0.0367,-0.0369,-0.0353,-0.0354,-0.0354,-0.0347,-0.0338,0,0,0,0,0,-0.0294,-0.0304,-0.0307,-0.031,-0.0311,-0.031,-0.0309,-0.0306,-0.031,-0.0311,-0.0317,-0.0331,-0.0345,-0.0355,-0.0365,-0.0383,-0.0383,-0.0392,-0.0392,-0.0392,-0.039,-0.039,-0.039,-0.0395,-0.0395,-0.0395,0,0,-0.029,-0.0298,-0.0303,-0.031,-0.0309,-0.0308,-0.0308,-0.0307,-0.0307,-0.0316,-0.032,-0.0331,-0.035,-0.0363,-0.0372,-0.0373,-0.0393,-0.0394,-0.0394,-0.0392,-0.0391,-0.0391,-0.039,-0.0396,-0.0396,-0.0395,0,0,-0.0287,-0.0298,-0.0304,-0.0304,-0.0307,-0.0307,-0.0308,-0.0307,-0.0309,-0.0315,-0.0324,-0.0335,-0.0357,-0.0365,-0.0376,-0.0389,-0.0393,-0.04,-0.0398,-0.0398,-0.0397,-0.0396,-0.0397,-0.0397,-0.0403,-0.0403,-0.0403,0,-0.0278,-0.0291,-0.0302,-0.0304,-0.0304,-0.0308,-0.0307,-0.0308,-0.0311,-0.0319,-0.0316,-0.0344,-0.0355,-0.0376,-0.0378,-0.0388,-0.0391,-0.0391,-0.0396,-0.0395,-0.0395,-0.0396,-0.0396,-0.0402,-0.0402,-0.0402,-0.0403,0,-0.028,-0.0286,-0.0288,-0.0297,-0.0298,-0.0297,-0.0302,-0.0307,-0.0311,-0.0315,-0.0332,-0.0341,-0.0359,-0.0366,-0.0375,-0.0385,-0.039,-0.0392,-0.0389,-0.0393,-0.0395,-0.0395,-0.0401,-0.0402,-0.0402,-0.0402,0,0,-0.0254,-0.0285,-0.0282,-0.029,-0.0294,-0.0296,-0.0302,-0.0312,-0.0325,-0.0323,-0.0336,-0.035,-0.0356,-0.0368,-0.0381,-0.0381,-0.0376,-0.0385,-0.0386,-0.0377,-0.0378,-0.0359,-0.0357,-0.0378,-0.0378,-0.0378,-0.0381,0,-0.0244,-0.026,-0.0274,-0.0276,-0.0282,-0.0293,-0.0304,-0.0315,-0.0325,-0.0337,-0.0345,-0.036,-0.0358,-0.037,-0.0367,-0.0377,-0.0375,-0.0375,-0.0384,-0.0385,-0.0359,-0.0355,-0.0378,-0.0381,-0.0381,-0.038,-0.038,0,-0.0231,-0.0246,-0.0257,-0.0283,-0.0287,-0.0286,-0.0309,-0.032,-0.0342,-0.0354,-0.0363,-0.0372,-0.0377,-0.0371,-0.0373,-0.0375,-0.0374,-0.0375,-0.0375,-0.0361,-0.0365,-0.0378,-0.038,-0.038,-0.038,-0.038,-0.038,0,-0.0213,-0.0229,-0.0243,-0.0246,-0.0276,-0.0281,-0.0294,-0.032,-0.0339,-0.0359,-0.0371,-0.038,-0.0378,-0.0379,-0.0378,-0.0377,-0.0377,-0.0376,-0.0358,-0.0357,-0.038,-0.0381,-0.0372,-0.0372,-0.0372,-0.0372,-0.0372,0,-0.0197,-0.0201,-0.0233,-0.0239,-0.0248,-0.0272,-0.0289,-0.0309,-0.034,-0.036,-0.0374,-0.0377,-0.0377,-0.0378,-0.0381,-0.0367,-0.0378,-0.0354,-0.0354,-0.0375,-0.0375,-0.038,-0.0381,-0.0373,-0.0372,-0.0372,-0.0372,0,-0.0171,-0.0195,-0.0206,-0.0236,-0.024,-0.0243,-0.0276,-0.0299,-0.0329,-0.0352,-0.0357,-0.0367,-0.0359,-0.0368,-0.0366,-0.0361,-0.0361,-0.0355,-0.038,-0.0383,-0.0341,-0.0341,-0.0329,-0.0329,-0.0328,-0.0327,-0.0327,0,-0.0155,-0.0165,-0.0197,-0.0198,-0.0204,-0.0218,-0.0238,-0.0281,-0.0303,-0.034,-0.0344,-0.0344,-0.0348,-0.0325,-0.0335,-0.0341,-0.0339,-0.0345,-0.0336,-0.0334,-0.0335,-0.0337,-0.0338,-0.0326,-0.0326,-0.0326,-0.0326,0,-0.0125,-0.0145,-0.0164,-0.0168,-0.0176,-0.0207,-0.0229,-0.0244,-0.0298,-0.0323,-0.0321,-0.0321,-0.0307,-0.0295,-0.0305,-0.031,-0.0346,-0.0339,-0.034,-0.0331,-0.033,-0.0332,-0.0334,-0.0323,-0.0324,-0.0324,-0.0324,0,-0.0091,-0.0102,-0.013,-0.0129,-0.0147,-0.0181,-0.0207,-0.023,-0.0256,-0.0299,-0.0287,-0.0292,-0.0291,-0.0279,-0.0289,-0.0292,-0.0284,-0.0288,-0.0291,-0.0294,-0.0282,-0.0276,-0.0249,0,0,0,0,0,-0.0048,-0.0074,-0.0085,-0.0096,-0.0122,-0.0144,-0.0196,-0.0231,-0.0271,-0.0262,-0.028,-0.0269,-0.0266,-0.0258,-0.0252,-0.0278,-0.0293,-0.0273,-0.03,-0.0312,-0.0314,-0.0305,0,0,0,0,0,0,-0.0025,-0.0045,-0.0074,-0.0069,-0.0081,-0.012,-0.0166,-0.021,-0.0206,-0.0235,-0.0222,-0.0249,-0.0235,-0.0251,-0.0238,-0.0242,-0.0257,-0.0278,-0.0278,-0.031,-0.0313,-0.0314,-0.0306,0,0,0,0,0]},{"header":{"parameterUnit":"m.s-1","parameterCategory":2,"la1":30.2991,"la2":30.254,"lo1":-89.0895,"lo2":-89.0444,"dx":0.0017,"dy":0.0017,"nx":28,"ny":28,"refTime":"2022-11-07T03:00:00:Z","depth":"4","parameterNumber":3,"parameterNumberName":"V-component_of_CURRENTS"},"data":[0,0,0,0,0,0,0,0,0,0,0,0,0,0,0,0,0,0,0,0,0,0,0,0,0,0,0,0,0,0,0,0,0,0,0,0,0,0,0,0,0,0,0,0,0,0,0,0,0,0,0,0,0,0,0,0,0,0,0.0073,0.0073,0,0.0064,0.0063,0.0063,0.0074,0.0075,0.0075,0.0075,0.0064,0.0063,0.0062,0,0,0,0,0,0,0,0,0,0,0,0,0,0.0098,0.0098,0.0073,0.0073,0.0073,0.0064,0.0063,0.0063,0.0074,0.0075,0.0075,0.0076,0.0064,0.0063,0.0062,0,0,0,0,0,0,0,0,0,0,0,0,0,0.0087,0.0098,0.0073,0.0078,0.0078,0.0064,0.0063,0.0063,0.0074,0.0075,0.0075,0.0076,0.0064,0.0063,0.0062,0.004,0,0,0.0059,0.0058,0,0,0,0,0,0,0,0,0.0088,0.0086,0.0077,0.0077,0.0078,0.0071,0.0068,0.0056,0.0074,0.0074,0.0075,0.0076,0.0066,0.0065,0.006,0.004,0.0039,0.0059,0.0058,0.0057,0.0057,0,0,0,0,0,0,0,0.0088,0.0086,0.0068,0.0077,0.0077,0.008,0.0079,0.0066,0.0066,0.0074,0.0075,0.0076,0.0066,0.0061,0.006,0.0039,0.0059,0.0058,0.0057,0.0056,0.0,-0.0,0,0,0,0,0,0,0.0091,0.0087,0.0068,0.0068,0.0086,0.0079,0.0078,0.0072,0.0066,0.0066,0.0075,0.0076,0.0063,0.0061,0.006,0.0052,0.0057,0.0056,0.0056,0.0001,0.0,-0.0001,0,0,0,0,0,0,0.0091,0.0089,0.0069,0.0079,0.0076,0.0078,0.0071,0.0071,0.0071,0.0066,0.0066,0.0075,0.0064,0.0061,0.0046,0.0051,0.0056,0.0055,0.0002,0.0001,-0.0,0.0024,0,0,0,0,0,0,0.0092,0.0089,0.0086,0.0078,0.0076,0.0066,0.007,0.0071,0.007,0.0072,0.0066,0.0066,0.0064,0.0048,0.0045,0.0049,0.0054,0.0003,0.0002,0.0,0.0024,0.0024,0.0024,0,0,0,0,0,0.0092,0.009,0.0086,0.0084,0.0072,0.0066,0.0065,0.0068,0.007,0.007,0.006,0.0066,0.0036,0.0046,0.0043,0.0047,0.0004,0.0002,0.0,0.0025,0.0024,0.0024,0,0,0,0,0,0,0.0104,0.009,0.0086,0.0081,0.0075,0.0069,0.0071,0.0067,0.0059,0.0061,0.0055,0.0053,0.0041,0.0033,0.0044,0.0023,0.0021,0.0019,0.0041,0.004,0.004,0.0057,0.0053,0,0,0,0,0,0.0103,0.0096,0.0085,0.0082,0.008,0.0073,0.0071,0.007,0.0062,0.006,0.0053,0.0041,0.0029,0.0027,0.0012,0.0001,0.0015,-0.0,-0.0001,-0.0001,0.0008,0.0029,0.0033,-0.0007,-0.0007,-0.0007,0,0,0.0107,0.0099,0.0095,0.0083,0.008,0.0073,0.0074,0.0072,0.0067,0.0059,0.0048,0.0038,0.0023,0.0012,0.0006,0.0009,0.0017,-0.0003,-0.0003,0.0007,0.0028,0.0032,0.0036,-0.0008,-0.0008,-0.0007,0,0,0.0113,0.0104,0.0101,0.0093,0.0086,0.0078,0.0078,0.0067,0.0066,0.0049,0.0043,0.0037,0.0012,0.0012,0.0006,-0.0009,0.0011,-0.0018,0.0002,0.0022,0.0026,0.003,0.0059,0.0066,-0.0013,-0.0013,-0.0013,0,0.012,0.0108,0.0101,0.0095,0.0086,0.008,0.0072,0.0068,0.0053,0.0052,0.0048,0.0026,0.0014,0.0014,0.0009,-0.0006,0.0012,0.001,0.0025,0.0029,0.0033,0.0062,0.0068,-0.0012,-0.0012,-0.0012,-0.0012,0,0.012,0.011,0.011,0.0094,0.0086,0.0078,0.0068,0.0063,0.0055,0.0052,0.0047,0.0035,0.0027,0.0021,0.0011,0.0028,0.0034,0.0022,0.0035,0.0039,0.0068,0.0075,-0.0011,-0.0011,-0.0011,-0.0011,0,0,0.0133,0.0112,0.0111,0.0097,0.0081,0.007,0.0066,0.0057,0.0057,0.0053,0.0055,0.0044,0.0049,0.0042,0.0037,0.0058,0.0097,0.0055,0.0056,0.01,0.0155,0.0171,0.018,0.0093,0.0094,0.0095,0.0168,0,0.0133,0.0115,0.0105,0.0084,0.007,0.006,0.0053,0.0048,0.0047,0.0048,0.0057,0.0053,0.0054,0.0052,0.0075,0.0081,0.0114,0.0079,0.013,0.0132,0.0159,0.0188,0.0099,0.0173,0.0174,0.0175,0.0176,0,0.0132,0.0117,0.0096,0.0066,0.0061,0.0049,0.0034,0.0028,0.0039,0.0042,0.006,0.0064,0.0089,0.0085,0.0138,0.0117,0.0143,0.0159,0.0161,0.0175,0.016,0.0164,0.0189,0.0188,0.0187,0.0186,0.0185,0,0.0131,0.0106,0.0085,0.0074,0.0048,0.0039,0.0025,0.0028,0.0023,0.0044,0.0051,0.0083,0.0095,0.0135,0.0177,0.0156,0.0244,0.0214,0.0262,0.0264,0.0217,0.0212,0.0268,0.0268,0.0267,0.0267,0.0267,0,0.0123,0.0108,0.0081,0.0068,0.0039,0.0028,0.0012,0.001,0.0017,0.0024,0.005,0.0076,0.0109,0.0161,0.0194,0.0263,0.0264,0.0282,0.0288,0.0224,0.0219,0.0223,0.0217,0.027,0.0269,0.0269,0.0268,0,0.0122,0.0107,0.008,0.005,0.0037,0.0015,-0.0013,-0.0021,-0.0002,0.0012,0.002,0.0071,0.0143,0.0197,0.0265,0.0286,0.0345,0.0372,0.0324,0.0323,0.0343,0.0337,0.0419,0.042,0.0421,0.0422,0.0423,0,0.0116,0.0104,0.0065,0.0037,0.0019,-0.0011,-0.0035,-0.0035,-0.0041,0.002,0.0023,0.0104,0.0147,0.0273,0.0317,0.0402,0.0405,0.0434,0.0369,0.0364,0.0361,0.0353,0.0346,0.0425,0.0425,0.0425,0.0426,0,0.0105,0.0096,0.0069,0.0017,-0.0019,-0.0058,-0.0087,-0.0088,-0.0068,-0.0039,0.0048,0.0125,0.0213,0.0288,0.0367,0.042,0.0407,0.0445,0.0441,0.0381,0.0372,0.0366,0.0358,0.0429,0.0429,0.0428,0.0428,0,0.0096,0.0072,0.0037,-0.0013,-0.0062,-0.0104,-0.011,-0.0102,-0.0093,-0.0017,0.0024,0.0139,0.0206,0.0301,0.0375,0.0431,0.0418,0.0408,0.0406,0.0403,0.0368,0.0352,0.0426,0,0,0,0,0,0.0089,0.0054,0.0004,-0.0058,-0.0107,-0.0134,-0.0152,-0.0147,-0.0108,-0.0047,-0.001,0.0087,0.022,0.028,0.0338,0.0355,0.0401,0.042,0.0381,0.045,0.0446,0.0408,0,0,0,0,0,0,0.0075,0.0036,0.0001,-0.0086,-0.0134,-0.0188,-0.0198,-0.017,-0.0135,-0.0067,0.0005,0.0084,0.0204,0.0189,0.0335,0.0355,0.0334,0.0492,0.0493,0.0453,0.0449,0.0445,0.0404,0,0,0,0,0]}]]